Wind_Speed
4 5 2 4 4 4 2 3 3 6 5 3 4 7 12 10 3 6 8 8 10 14 24 27 28 36 34 37 42 42 35 39 39 38 38 38 41 40 39 37 35 35 32 29
6 1 5 5 4 5 4 3 7 6 3 3 7 10 7 7 9 7 8 8 11 8 17 19 27 30 39 40 42 38 42 39 42 40 36 29 29 35 39 36 35 31 26 26
4 4 5 3 3 2 3 4 3 5 5 3 7 7 8 8 4 8 7 8 9 13 15 12 10 27 32 36 41 40 41 42 42 41 36 31 28 27 25 30 27 26 25 26
3 4 4 5 5 3 4 3 4 2 3 2 4 3 6 8 11 15 13 10 8 3 6 8 8 14 29 32 33 37 37 38 41 41 41 38 31 26 28 27 25 22 20 24
6 3 4 6 4 4 6 5 4 2 2 2 6 4 8 7 9 14 13 13 10 7 6 8 8 10 17 21 25 29 31 34 41 42 41 38 33 28 21 15 17 20 19 20
7 3 3 6 3 4 2 1 5 4 3 3 5 4 6 4 6 10 8 14 13 12 9 8 11 7 5 10 15 19 23 29 34 37 36 34 30 26 23 24 20 22 25 21
6 3 4 1 4 1 7 7 4 5 5 4 1 2 7 6 7 5 10 12 13 11 9 8 8 8 11 5 7 14 19 25 26 25 27 30 29 27 27 27 25 23 25 24
2 5 6 6 1 1 3 5 5 2 2 5 4 2 5 2 10 10 9 9 10 15 12 9 7 5 5 8 8 12 13 15 16 19 22 22 21 19 20 19 19 23 26 24
2 4 4 5 4 3 1 6 2 5 2 2 4 6 10 10 16 15 14 14 17 17 11 12 10 13 12 6 6 7 9 11 12 13 10 7 7 4 7 9 12 17 19 18
1 3 1 6 4 8 7 3 4 4 1 3 5 5 4 12 12 11 15 16 17 19 21 20 15 18 20 13 7 4 6 9 6 9 13 8 6 4 3 5 9 13 17 15
2 2 6 2 6 1 5 4 4 4 3 4 1 5 5 5 6 10 9 10 13 15 16 15 16 23 23 16 12 9 4 20 38 46 51 50 24 14 9 1 4 8 10 9
3 3 2 1 7 2 3 3 4 4 5 1 3 6 2 5 11 11 12 13 13 12 13 13 16 20 22 17 7 4 14 26 26 23 17 24 35 16 4 2 5 7 8 9
3 2 3 8 5 4 5 3 3 3 3 4 4 5 3 14 12 11 12 12 13 14 17 17 18 20 23 23 7 2 18 22 17 11 5 17 23 19 6 9 9 6 8 7
3 3 5 6 5 2 3 4 1 3 2 3 5 6 11 10 12 12 12 9 11 13 15 16 18 19 27 23 9 8 17 16 10 6 3 4 6 13 10 12 11 10 8 6
4 0 2 3 4 2 3 7 4 6 7 5 4 3 4 6 7 8 7 11 14 16 17 15 17 15 25 21 11 3 8 11 2 9 0 9 9 11 12 11 11 10 8 4
4 2 1 3 3 4 4 9 9 6 1 3 3 3 2 3 4 8 9 10 13 14 16 17 17 21 23 23 17 12 4 4 13 11 2 8 8 8 8 11 10 7 5 3
1 3 3 4 4 6 7 5 2 5 3 2 2 4 5 2 5 5 6 6 6 8 10 14 16 20 24 23 20 16 13 8 16 7 4 7 8 7 6 6 4 4 1 2
3 3 2 3 3 3 5 4 2 9 2 3 2 2 5 5 4 3 4 5 7 7 7 7 15 21 27 29 25 16 13 11 12 1 7 8 7 4 4 3 3 1 2 3
4 4 2 2 2 6 5 3 3 2 2 2 2 3 4 5 1 4 2 4 5 6 10 12 16 18 25 28 28 19 17 18 4 4 5 7 5 4 3 2 1 1 4 4
5 3 4 2 2 4 4 7 7 0 1 2 2 2 2 3 2 4 7 7 9 14 15 24 27 24 23 26 30 27 19 14 9 2 5 5 4 4 2 1 5 4 4 4
2 2 3 2 3 6 5 9 5 1 3 3 4 4 5 2 4 6 9 8 14 17 21 26 26 22 24 30 27 26 19 12 6 5 5 4 5 5 6 7 5 4 3 4
3 2 2 2 2 5 5 5 4 3 3 4 4 4 5 6 8 8 11 11 17 19 22 25 24 28 25 28 30 26 24 15 7 5 5 5 9 8 7 6 5 5 4 7
2 3 3 6 5 4 3 1 1 2 2 4 4 6 5 8 9 11 10 11 16 21 22 27 23 25 29 30 30 23 27 14 9 6 6 9 10 9 7 5 5 10 12 13
1 1 2 1 3 4 5 5 5 2 2 5 6 9 7 10 10 10 11 11 16 22 22 30 27 24 30 31 32 26 17 11 6 6 8 8 8 8 10 14 15 16 16 14
4 0 2 5 6 6 4 4 6 7 8 11 13 13 14 15 15 14 13 12 22 23 25 27 25 22 28 27 26 17 11 7 8 12 8 6 6 9 15 18 17 18 17 14
4 5 3 5 6 5 8 7 8 10 12 13 11 11 16 14 13 17 11 22 19 20 27 26 26 23 23 21 17 12 4 11 17 14 9 8 5 8 14 22 22 19 17 17
Wind_Direction
359 54 264 246 206 211 243 225 259 268 264 287 303 282 293 321 239 227 240 244 241 227 237 236 230 222 222 227 227 229 222 223 222 221 222 230 235 240 242 244 247 251 253 248
17 277 228 243 238 213 220 289 286 284 266 167 323 306 318 324 310 300 302 292 257 241 247 246 225 216 221 221 228 221 227 224 223 223 223 222 229 241 245 251 249 246 245 237
153 243 287 201 292 251 209 190 242 236 337 11 334 339 330 324 316 320 299 271 279 250 254 248 228 216 217 217 222 223 222 225 227 226 225 226 232 241 245 244 236 234 236 236
237 295 310 352 333 136 346 236 249 289 62 254 27 272 314 322 326 6 342 318 277 341 273 283 267 236 221 226 223 226 221 223 230 229 227 224 222 225 234 237 234 235 236 232
268 300 322 330 231 180 237 62 352 31 85 30 342 65 279 353 336 332 328 340 334 347 8 341 306 277 258 237 227 226 223 227 232 230 227 226 224 228 227 235 241 231 226 235
235 281 230 224 273 208 96 44 41 53 55 29 284 116 302 312 291 306 311 332 342 7 3 17 8 350 290 241 225 227 223 230 232 230 229 228 228 229 233 240 231 221 225 209
334 282 284 266 336 39 63 51 352 7 9 234 344 34 235 288 302 276 304 311 327 1 5 9 4 1 342 293 234 214 220 230 235 233 232 232 236 237 236 226 215 210 196 193
40 347 16 322 207 158 78 128 141 287 269 275 319 276 256 243 331 329 337 324 342 359 353 354 336 298 329 282 237 231 230 229 225 230 235 239 248 249 244 240 220 209 199 199
37 294 320 17 4 83 89 38 175 106 354 23 297 306 311 9 5 4 354 359 352 348 348 344 340 333 324 296 260 247 232 231 220 224 217 230 259 254 234 217 205 203 202 192
154 331 10 298 42 17 90 154 24 14 324 298 307 300 266 347 338 342 352 358 354 357 0 357 352 346 344 325 326 289 233 217 176 58 35 31 34 359 278 213 195 189 185 185
64 108 291 46 19 360 359 9 39 106 119 167 296 274 205 283 318 336 342 358 359 355 350 351 356 357 1 353 342 303 262 60 69 62 33 8 5 0 347 259 171 163 170 167
348 129 4 312 296 203 93 121 119 102 292 134 153 272 90 9 31 25 10 3 357 359 353 349 351 355 356 349 347 324 68 103 106 97 68 333 311 303 178 28 57 79 121 148
359 14 25 347 349 8 55 38 84 97 84 215 157 266 89 22 21 19 17 2 356 357 1 1 1 358 352 345 309 135 115 125 120 68 336 219 268 250 168 128 135 151 162 156
105 95 155 198 223 204 329 320 312 126 133 252 232 288 349 6 9 6 4 353 358 6 4 1 2 355 350 348 350 100 129 151 144 56 95 202 185 203 179 154 157 168 169 168
71 324 331 275 240 242 251 262 212 208 227 188 260 323 2 350 341 336 334 7 15 12 7 2 1 357 355 358 10 74 180 176 94 356 289 108 181 181 165 160 164 167 179 184
3 289 21 291 314 358 273 257 253 239 216 288 341 94 265 269 289 14 3 8 13 9 6 0 358 355 358 358 354 334 300 277 7 12 64 112 162 167 181 165 171 155 177 203
75 124 78 260 344 331 308 277 334 99 38 220 214 221 233 257 47 356 342 347 356 357 359 4 358 347 344 350 353 349 336 320 338 354 139 134 162 182 195 181 156 159 198 313
155 98 100 243 345 222 246 307 159 120 124 334 292 281 282 278 214 279 318 312 337 340 338 357 355 346 342 349 358 352 344 335 330 242 153 162 164 195 193 186 197 238 7 39
168 123 157 193 213 293 330 69 82 302 269 304 230 345 306 316 124 269 310 329 308 307 300 315 347 349 355 349 349 348 358 324 316 211 181 177 170 196 193 212 224 58 60 42
70 74 125 121 186 229 241 323 311 48 298 296 164 131 16 24 19 278 312 317 306 327 341 345 342 335 355 358 341 335 347 320 319 275 203 217 201 212 221 108 105 71 67 73
346 21 192 165 236 285 302 306 286 213 254 338 331 322 344 343 220 267 301 307 313 313 318 329 328 327 337 341 342 316 315 300 306 273 233 221 204 183 146 121 89 92 86 76
204 162 207 123 225 279 324 358 21 223 296 289 309 291 293 282 294 289 292 293 295 302 306 315 318 313 320 335 336 313 295 298 284 245 218 150 121 120 106 96 95 79 84 97
316 177 192 179 229 244 300 173 131 177 264 323 326 311 294 291 287 292 287 296 293 293 313 316 308 307 313 323 326 304 286 291 278 203 139 112 116 97 88 87 88 82 84 86
357 170 214 41 275 232 253 276 264 257 281 293 288 272 275 273 275 275 285 292 304 305 306 307 306 309 307 311 320 316 292 281 227 165 131 130 98 86 89 92 91 89 85 74
206 63 190 253 292 313 263 241 255 290 282 299 297 283 286 290 292 287 284 289 293 293 298 300 301 293 298 307 318 313 295 245 170 148 135 119 124 120 107 96 95 92 78 62
200 212 176 255 268 232 272 276 280 281 278 278 275 280 278 272 270 277 278 281 280 290 297 296 297 297 304 311 325 321 249 189 160 138 114 107 106 144 124 117 105 90 74 59
Height
797 812 820 810 808 808 809 815 818 802 788 787 785 788 768 758 755 754 752 750 747 740 725 729 731 734 739 743 747 749 755 758 762 765 767 771 772 773 775 778 779 780 783 785
811 818 802 799 801 807 811 812 814 797 786 787 786 784 774 761 755 751 748 748 743 736 726 721 723 726 728 730 735 743 747 752 755 759 761 764 766 768 770 773 775 777 778 779
814 803 794 797 799 804 808 811 805 804 791 786 793 794 787 758 758 752 748 745 737 732 726 721 721 719 720 722 725 733 740 747 749 754 758 761 764 765 766 767 769 772 774 774
807 796 796 799 801 799 806 793 792 792 805 820 798 830 793 779 772 753 750 746 740 726 724 723 720 719 715 717 723 728 734 742 745 747 749 752 754 757 758 761 765 770 773 773
810 800 798 805 795 791 801 789 798 796 808 810 811 825 801 785 779 765 754 743 737 729 723 720 718 718 720 721 723 726 730 734 737 742 744 746 749 753 755 760 764 767 769 769
803 789 792 792 782 782 782 789 808 817 826 839 819 824 817 798 783 773 757 747 738 728 724 722 721 720 721 723 724 727 731 733 735 738 740 743 746 750 753 757 759 762 762 768
810 797 787 782 791 784 796 820 851 845 856 845 819 823 808 782 771 768 763 752 746 733 728 726 725 724 724 725 728 729 728 730 733 737 740 743 744 746 749 751 753 757 761 763
832 827 796 782 788 796 806 816 849 846 860 849 821 820 801 770 772 769 765 760 749 741 737 731 730 725 721 724 725 730 731 731 733 736 737 740 743 746 750 751 752 755 756 759
829 820 792 786 786 791 804 826 817 841 848 850 838 811 783 782 774 771 766 761 759 753 748 740 733 732 731 725 728 728 729 731 732 736 738 740 743 747 747 747 750 753 756 759
814 829 802 794 788 794 802 806 831 845 845 841 841 830 828 803 795 785 778 777 770 761 751 744 740 737 734 734 733 730 728 729 733 743 751 752 750 748 749 748 751 753 754 757
812 822 817 803 815 818 821 827 834 841 851 858 861 839 810 802 798 797 791 785 779 773 765 757 749 743 737 735 736 736 735 746 749 753 769 779 769 758 759 756 756 755 755 758
818 831 836 823 816 811 813 824 837 854 849 855 859 844 799 801 801 801 797 789 782 777 772 765 756 748 742 738 735 735 745 743 742 740 734 760 771 765 750 761 761 763 763 763
819 838 854 839 827 815 825 822 824 841 849 849 855 839 804 801 805 804 802 794 786 778 771 765 757 752 748 744 739 736 741 740 742 739 739 740 744 756 755 757 763 764 767 766
820 841 843 857 836 831 831 828 822 835 853 844 843 828 816 819 816 809 805 799 791 783 778 772 765 759 753 746 744 743 743 742 743 746 749 743 740 750 752 751 759 765 768 767
830 838 835 830 830 827 826 828 826 833 831 838 827 827 829 827 821 815 808 800 794 788 783 779 773 767 761 755 751 751 747 744 748 743 744 741 749 753 753 756 760 763 767 767
837 841 838 836 827 832 832 825 824 823 821 823 826 830 825 820 818 813 810 804 799 794 788 782 777 772 766 762 758 755 755 755 753 748 752 750 756 756 759 756 760 761 764 765
838 845 851 852 840 836 842 822 819 829 829 826 832 826 820 820 818 817 814 809 804 798 793 787 782 777 771 765 763 759 757 757 754 750 751 755 756 759 761 761 763 762 763 764
841 848 855 857 846 854 824 812 813 825 827 827 822 819 817 817 814 813 810 808 804 798 794 789 784 779 773 768 763 761 759 757 754 753 750 754 756 758 760 761 762 762 762 763
840 848 855 858 861 844 821 816 820 821 829 825 824 821 817 815 811 811 806 804 801 797 792 789 785 780 774 770 766 762 755 761 755 753 753 754 753 757 759 759 760 762 761 762
842 844 851 864 856 855 830 824 815 816 837 824 824 821 818 815 823 818 806 803 798 793 788 782 779 777 773 767 766 762 757 763 759 757 756 757 756 758 758 758 760 761 761 763
848 851 855 862 857 846 829 823 815 831 843 827 827 826 823 823 821 813 807 801 797 793 789 783 777 774 773 769 763 764 762 762 758 759 758 758 757 758 759 759 761 762 760 760
846 852 857 862 855 850 827 822 830 836 830 827 825 822 821 819 815 811 806 800 796 792 788 783 778 772 770 769 762 760 759 757 757 757 756 756 756 757 758 760 760 760 761 762
850 848 852 851 847 834 830 828 827 829 829 826 825 822 820 818 813 808 804 799 794 790 785 781 777 772 767 767 763 758 752 755 755 755 756 756 757 758 759 759 760 759 760 762
843 843 847 842 835 833 831 828 826 826 824 823 821 819 816 813 809 805 801 795 791 786 783 780 776 773 768 765 763 756 752 753 752 755 755 758 758 758 759 759 760 761 764 766
845 841 845 846 837 834 829 828 826 825 823 820 817 814 811 808 804 800 796 792 788 784 780 777 772 768 766 764 760 754 751 751 752 753 756 757 758 761 760 761 765 765 768 769
843 841 847 844 835 837 832 825 821 822 819 815 812 809 805 803 800 796 793 788 784 781 776 772 767 765 762 761 757 753 751 752 752 754 757 762 766 765 768 765 768 770 771 771